TimeMST,TemperatureF,Dew PointF,Humidity,Sea Level PressureIn,VisibilityMPH,Wind Direction,Wind SpeedMPH,Gust SpeedMPH,PrecipitationIn,Events,Conditions,WindDirDegrees,DateUTC
12:15 AM,51.8,32.0,47,29.82,10.0,SSW,4.6,-,N/A,,Clear,210,2013-02-09 07:15:00
12:35 AM,51.8,32.0,47,29.82,10.0,SW,5.8,-,N/A,,Clear,220,2013-02-09 07:35:00
12:55 AM,51.8,30.2,44,29.82,10.0,SW,5.8,-,N/A,,Clear,220,2013-02-09 07:55:00
1:15 AM,51.8,32.0,47,29.82,10.0,SW,6.9,-,N/A,,Clear,220,2013-02-09 08:15:00
1:35 AM,51.8,28.4,41,29.84,10.0,West,17.3,20.7,N/A,,Scattered Clouds,260,2013-02-09 08:35:00
1:55 AM,51.8,32.0,47,29.84,10.0,WNW,19.6,23.0,N/A,,Clear,300,2013-02-09 08:55:00
2:15 AM,50.0,32.0,50,29.84,10.0,WNW,20.7,25.3,N/A,,Clear,300,2013-02-09 09:15:00
2:35 AM,46.4,32.0,57,29.85,10.0,WNW,18.4,-,N/A,,Clear,290,2013-02-09 09:35:00
2:55 AM,46.4,32.0,57,29.86,7.0,WNW,25.3,31.1,N/A,,Clear,290,2013-02-09 09:55:00
3:15 AM,44.6,35.6,71,29.87,10.0,NW,17.3,25.3,N/A,Rain,Light Rain,310,2013-02-09 10:15:00
3:35 AM,42.8,37.4,81,29.87,10.0,NW,6.9,21.9,0.01,Rain,Light Rain,310,2013-02-09 10:35:00
3:55 AM,42.8,37.4,81,29.86,10.0,NW,9.2,-,0.02,Rain,Light Rain,320,2013-02-09 10:55:00
4:15 AM,42.8,37.4,81,29.85,10.0,North,4.6,-,N/A,,Clear,350,2013-02-09 11:15:00
4:35 AM,42.8,37.4,81,29.85,10.0,ENE,4.6,-,N/A,,Clear,70,2013-02-09 11:35:00
4:55 AM,42.8,37.4,81,29.85,10.0,East,3.5,-,N/A,,Clear,80,2013-02-09 11:55:00
5:15 AM,42.8,37.4,81,29.86,10.0,East,3.5,-,N/A,,Clear,100,2013-02-09 12:15:00
5:47 AM,44.6,37.4,76,29.86,20.0,SE,3.5,-,N/A,,Mostly Cloudy,130,2013-02-09 12:47:00
6:53 AM,44.6,37.4,76,29.87,20.0,SE,4.6,-,N/A,,Mostly Cloudy,130,2013-02-09 13:53:00
7:47 AM,44.6,37.4,76,29.90,30.0,East,4.6,-,N/A,,Mostly Cloudy,90,2013-02-09 14:47:00
8:50 AM,46.4,35.6,66,29.93,45.0,SW,11.5,-,N/A,,Mostly Cloudy,230,2013-02-09 15:50:00
9:57 AM,48.2,32.0,54,29.96,45.0,WSW,13.8,-,N/A,,Mostly Cloudy,240,2013-02-09 16:57:00
10:52 AM,50.0,32.0,50,29.98,45.0,SW,12.7,-,N/A,,Mostly Cloudy,230,2013-02-09 17:52:00
11:47 AM,51.8,28.4,41,29.98,45.0,WSW,9.2,-,N/A,,Mostly Cloudy,250,2013-02-09 18:47:00
12:47 PM,53.6,28.4,38,29.98,45.0,West,8.1,-,N/A,,Mostly Cloudy,260,2013-02-09 19:47:00
1:47 PM,53.6,26.6,35,29.97,45.0,WSW,11.5,16.1,N/A,,Mostly Cloudy,240,2013-02-09 20:47:00
2:47 PM,53.6,24.8,33,29.97,30.0,WSW,11.5,24.2,N/A,,Overcast,240,2013-02-09 21:47:00
3:47 PM,53.6,24.8,33,29.97,30.0,SW,13.8,-,N/A,,Overcast,230,2013-02-09 22:47:00
4:47 PM,53.6,24.8,33,29.98,30.0,West,11.5,18.4,N/A,,Overcast,260,2013-02-09 23:47:00
5:47 PM,53.6,24.8,33,29.99,30.0,West,9.2,-,N/A,,Mostly Cloudy,260,2013-02-10 00:47:00
6:47 PM,51.8,30.2,44,30.00,20.0,Variable,3.5,-,N/A,,Mostly Cloudy,0,2013-02-10 01:47:00
7:47 PM,48.2,30.2,50,30.01,20.0,Calm,Calm,-,N/A,,Mostly Cloudy,0,2013-02-10 02:47:00
7:55 PM,46.4,32.0,57,30.01,10.0,ESE,3.5,-,N/A,,Scattered Clouds,110,2013-02-10 02:55:00
8:15 PM,46.4,30.2,53,30.01,10.0,SE,4.6,-,N/A,,Scattered Clouds,140,2013-02-10 03:15:00
8:35 PM,44.6,32.0,61,30.02,10.0,ENE,6.9,-,N/A,,Scattered Clouds,70,2013-02-10 03:35:00
8:47 PM,46.4,32.0,57,30.02,20.0,Calm,Calm,-,N/A,,Mostly Cloudy,0,2013-02-10 03:47:00
8:55 PM,46.4,32.0,57,30.02,10.0,Calm,Calm,-,N/A,,Scattered Clouds,0,2013-02-10 03:55:00
9:15 PM,46.4,32.0,57,30.03,10.0,ENE,3.5,-,N/A,,Mostly Cloudy,60,2013-02-10 04:15:00
9:35 PM,44.6,33.8,66,30.03,10.0,Calm,Calm,-,N/A,,Mostly Cloudy,0,2013-02-10 04:35:00
9:55 PM,44.6,33.8,66,30.03,10.0,Calm,Calm,-,N/A,,Mostly Cloudy,0,2013-02-10 04:55:00
10:15 PM,44.6,33.8,66,30.04,10.0,East,3.5,-,N/A,,Mostly Cloudy,90,2013-02-10 05:15:00
10:35 PM,44.6,33.8,66,30.04,10.0,East,4.6,-,N/A,,Mostly Cloudy,90,2013-02-10 05:35:00
10:55 PM,44.6,33.8,66,30.04,10.0,East,3.5,-,N/A,,Overcast,100,2013-02-10 05:55:00
11:15 PM,44.6,35.6,71,30.04,10.0,East,3.5,-,N/A,,Overcast,90,2013-02-10 06:15:00
11:35 PM,44.6,33.8,66,30.04,10.0,ESE,4.6,-,N/A,,Overcast,110,2013-02-10 06:35:00
11:55 PM,44.6,33.8,66,30.05,10.0,ESE,3.5,-,N/A,,Overcast,120,2013-02-10 06:55:00